When you browse on this site, cookies collect data to enhance your experience and personalize the content and advertising you see.
Visit our Privacy Policy to learn more. By continuing to use the site, you agree to this use of cookies and data.
  • En España
  • Lista de países
  • Para 7 días
  • Temperatura del agua
  • El tiempo en el mapa
  • Informadores
  • user-avatar
    Iniciar sesión

    Tiempo cada hora Chichester

    Hoy, 17 Septiembre, Martes

    Tiempo Temperatura Precipitaciones Viento Presión Humedad
    00:00 +14°C° 0 mm 3 mps 766 mmHg 88%
    01:00 +14°C° 0 mm 3 mps 765 mmHg 87%
    02:00 +13°C° 0 mm 3 mps 765 mmHg 85%
    03:00 +13°C° 0 mm 4 mps 765 mmHg 84%
    04:00 +12°C° 0 mm 4 mps 765 mmHg 85%
    05:00 +11°C° 0 mm 4 mps 766 mmHg 86%
    06:00 +10°C° 0 mm 4 mps 766 mmHg 87%
    07:00 +11°C° 0 mm 4 mps 766 mmHg 82%
    08:00 +13°C° 0 mm 5 mps 766 mmHg 76%
    09:00 +14°C° 0 mm 5 mps 767 mmHg 70%
    10:00 +15°C° 0 mm 4 mps 767 mmHg 64%
    11:00 +18°C° 0 mm 4 mps 767 mmHg 58%
    12:00 +19°C° 0 mm 4 mps 767 mmHg 52%
    13:00 +19°C° 0 mm 4 mps 767 mmHg 52%
    14:00 +19°C° 0 mm 4 mps 767 mmHg 52%
    15:00 +19°C° 0 mm 4 mps 767 mmHg 51%
    16:00 +18°C° 0 mm 4 mps 767 mmHg 55%
    17:00 +17°C° 0 mm 4 mps 767 mmHg 59%
    18:00 +15°C° 0 mm 4 mps 767 mmHg 63%
    19:00 +14°C° 0 mm 5 mps 768 mmHg 66%
    20:00 +13°C° 0 mm 5 mps 768 mmHg 68%
    21:00 +11°C° 0 mm 6 mps 768 mmHg 70%
    22:00 +10°C° 0 mm 6 mps 769 mmHg 72%
    23:00 +9°C° 0 mm 5 mps 769 mmHg 74%

    Mañana, 18 Septiembre, Miércoles

    Tiempo Temperatura Precipitaciones Viento Presión Humedad
    00:00 +9°C° 0 mm 5 mps 769 mmHg 76%
    01:00 +8°C° 0 mm 5 mps 769 mmHg 77%
    02:00 +8°C° 0 mm 5 mps 769 mmHg 77%
    03:00 +7°C° 0 mm 4 mps 769 mmHg 77%
    04:00 +7°C° 0 mm 4 mps 769 mmHg 78%
    05:00 +7°C° 0 mm 4 mps 770 mmHg 80%
    06:00 +7°C° 0 mm 4 mps 770 mmHg 81%
    07:00 +8°C° 0 mm 4 mps 770 mmHg 74%
    08:00 +10°C° 0 mm 5 mps 770 mmHg 67%
    09:00 +13°C° 0 mm 5 mps 771 mmHg 61%
    10:00 +14°C° 0 mm 5 mps 770 mmHg 55%
    11:00 +15°C° 0 mm 4 mps 770 mmHg 50%
    12:00 +17°C° 0 mm 4 mps 770 mmHg 45%
    13:00 +18°C° 0 mm 4 mps 770 mmHg 45%
    14:00 +18°C° 0 mm 4 mps 770 mmHg 45%
    15:00 +19°C° 0 mm 4 mps 770 mmHg 45%
    16:00 +17°C° 0 mm 4 mps 770 mmHg 50%
    17:00 +15°C° 0 mm 4 mps 770 mmHg 56%
    18:00 +14°C° 0 mm 4 mps 770 mmHg 61%
    19:00 +13°C° 0 mm 4 mps 770 mmHg 64%
    20:00 +12°C° 0 mm 4 mps 771 mmHg 66%
    21:00 +12°C° 0 mm 4 mps 771 mmHg 68%
    22:00 +11°C° 0 mm 3 mps 771 mmHg 71%
    23:00 +11°C° 0 mm 3 mps 771 mmHg 74%

    Pasado mañana, 19 Septiembre, Jueves

    Tiempo Temperatura Precipitaciones Viento Presión Humedad
    00:00 +10°C° 0 mm 3 mps 771 mmHg 77%
    01:00 +10°C° 0 mm 3 mps 771 mmHg 78%
    02:00 +10°C° 0 mm 2 mps 771 mmHg 80%
    03:00 +10°C° 0 mm 2 mps 771 mmHg 82%
    04:00 +10°C° 0 mm 2 mps 771 mmHg 82%
    05:00 +9°C° 0 mm 2 mps 771 mmHg 83%
    06:00 +9°C° 0 mm 2 mps 771 mmHg 83%
    07:00 +12°C° 0 mm 2 mps 771 mmHg 76%
    08:00 +13°C° 0 mm 3 mps 771 mmHg 69%
    09:00 +16°C° 0 mm 3 mps 772 mmHg 63%
    10:00 +17°C° 0 mm 3 mps 772 mmHg 60%
    11:00 +18°C° 0 mm 3 mps 772 mmHg 57%
    12:00 +19°C° 0 mm 3 mps 771 mmHg 54%
    13:00 +19°C° 0 mm 3 mps 771 mmHg 54%
    14:00 +20°C° 0 mm 2 mps 771 mmHg 54%
    15:00 +20°C° 0 mm 2 mps 771 mmHg 53%
    16:00 +19°C° 0 mm 2 mps 770 mmHg 60%
    17:00 +17°C° 0 mm 3 mps 770 mmHg 66%
    18:00 +16°C° 0 mm 3 mps 770 mmHg 72%
    19:00 +14°C° 0 mm 3 mps 770 mmHg 75%
    20:00 +13°C° 0 mm 3 mps 770 mmHg 78%
    21:00 +12°C° 0 mm 4 mps 771 mmHg 81%
    22:00 +12°C° 0 mm 4 mps 770 mmHg 83%
    23:00 +12°C° 0 mm 4 mps 770 mmHg 85%

    20 Septiembre, Viernes

    Tiempo Temperatura Precipitaciones Viento Presión Humedad
    00:00 +11°C° 0 mm 4 mps 770 mmHg 87%
    01:00 +11°C° 0 mm 4 mps 770 mmHg 88%
    02:00 +11°C° 0 mm 4 mps 770 mmHg 89%
    03:00 +11°C° 0 mm 4 mps 770 mmHg 89%
    04:00 +11°C° 0 mm 4 mps 769 mmHg 89%
    05:00 +10°C° 0 mm 5 mps 769 mmHg 89%
    06:00 +9°C° 0 mm 5 mps 769 mmHg 89%
    07:00 +11°C° 0 mm 6 mps 769 mmHg 80%
    08:00 +14°C° 0 mm 6 mps 768 mmHg 70%
    09:00 +15°C° 0 mm 7 mps 768 mmHg 61%
    10:00 +16°C° 0 mm 7 mps 768 mmHg 56%
    11:00 +17°C° 0 mm 7 mps 767 mmHg 51%
    12:00 +18°C° 0 mm 8 mps 767 mmHg 46%
    13:00 +18°C° 0 mm 8 mps 766 mmHg 44%
    14:00 +20°C° 0 mm 8 mps 766 mmHg 43%
    15:00 +20°C° 0 mm 8 mps 765 mmHg 42%
    16:00 +18°C° 0 mm 8 mps 764 mmHg 45%
    17:00 +17°C° 0 mm 7 mps 764 mmHg 48%
    18:00 +15°C° 0 mm 7 mps 764 mmHg 52%
    19:00 +15°C° 0 mm 7 mps 763 mmHg 55%
    20:00 +14°C° 0 mm 7 mps 763 mmHg 59%
    21:00 +14°C° 0 mm 7 mps 763 mmHg 62%
    22:00 +14°C° 0 mm 7 mps 762 mmHg 65%
    23:00 +14°C° 0 mm 7 mps 762 mmHg 68%

    21 Septiembre, Sábado

    Tiempo Temperatura Precipitaciones Viento Presión Humedad
    00:00 +14°C° 0 mm 7 mps 761 mmHg 71%
    01:00 +14°C° 0 mm 7 mps 761 mmHg 71%
    02:00 +13°C° 0 mm 6 mps 760 mmHg 72%
    03:00 +13°C° 0 mm 6 mps 760 mmHg 73%
    04:00 +13°C° 0 mm 6 mps 759 mmHg 76%
    05:00 +11°C° 0 mm 6 mps 759 mmHg 78%
    06:00 +11°C° 0 mm 6 mps 758 mmHg 81%
    07:00 +14°C° 0 mm 6 mps 758 mmHg 75%
    08:00 +15°C° 0 mm 6 mps 758 mmHg 70%
    09:00 +17°C° 0 mm 7 mps 758 mmHg 64%
    10:00 +18°C° 0 mm 7 mps 757 mmHg 63%
    11:00 +19°C° 0 mm 6 mps 757 mmHg 62%
    12:00 +20°C° 0 mm 6 mps 757 mmHg 61%
    13:00 +21°C° 0 mm 6 mps 756 mmHg 61%
    14:00 +21°C° 0 mm 6 mps 755 mmHg 62%
    15:00 +22°C° 0 mm 6 mps 755 mmHg 62%
    16:00 +21°C° 0.5 mm 5 mps 755 mmHg 67%
    17:00 +20°C° 0.5 mm 5 mps 754 mmHg 72%
    18:00 +19°C° 0.5 mm 4 mps 754 mmHg 77%
    19:00 +19°C° 0.5 mm 5 mps 754 mmHg 83%
    20:00 +19°C° 0.5 mm 6 mps 755 mmHg 88%
    21:00 +19°C° 0.5 mm 6 mps 755 mmHg 93%
    22:00 +17°C° 0 mm 6 mps 755 mmHg 93%
    23:00 +17°C° 0 mm 5 mps 755 mmHg 93%

    22 Septiembre, Domingo

    Tiempo Temperatura Precipitaciones Viento Presión Humedad
    00:00 +16°C° 0 mm 5 mps 755 mmHg 93%
    01:00 +16°C° 0 mm 5 mps 755 mmHg 94%
    02:00 +16°C° 0 mm 5 mps 755 mmHg 94%
    03:00 +16°C° 0 mm 5 mps 755 mmHg 95%
    04:00 +16°C° 0 mm 6 mps 755 mmHg 94%
    05:00 +16°C° 0 mm 6 mps 755 mmHg 94%
    06:00 +16°C° 0 mm 7 mps 755 mmHg 94%
    07:00 +17°C° 0.4 mm 7 mps 755 mmHg 93%
    08:00 +17°C° 0.4 mm 7 mps 755 mmHg 92%
    09:00 +17°C° 0.4 mm 8 mps 755 mmHg 91%
    10:00 +18°C° 0.2 mm 7 mps 756 mmHg 83%
    11:00 +18°C° 0.2 mm 7 mps 756 mmHg 75%
    12:00 +20°C° 0.2 mm 7 mps 756 mmHg 66%
    13:00 +20°C° 0 mm 7 mps 757 mmHg 65%
    14:00 +20°C° 0 mm 7 mps 757 mmHg 63%
    15:00 +20°C° 0 mm 8 mps 757 mmHg 62%
    16:00 +18°C° 0 mm 7 mps 758 mmHg 64%
    17:00 +17°C° 0 mm 7 mps 758 mmHg 67%
    18:00 +16°C° 0 mm 6 mps 759 mmHg 69%
    19:00 +15°C° 0 mm 6 mps 759 mmHg 73%
    20:00 +15°C° 0 mm 6 mps 760 mmHg 77%
    21:00 +14°C° 0 mm 5 mps 760 mmHg 80%
    22:00 +14°C° 0 mm 5 mps 761 mmHg 83%
    23:00 +13°C° 0 mm 5 mps 761 mmHg 85%
    Mostrar más